Total_Precipitation_Accumulation
0.04 0.04 0.03 0.03 0.02 0.02 0.02 0.03 0.03 0.02 0.01 0.02 0.02 0.03 0.03 0.02 0.02 0.02 0.02 0.02 0.02 0.01 0.02 0.00 0.01 0.01 0.00 0.01 0.00 0.00 0.00 0.01 0.00 0.00 0.00 0.00 0.00 0.00 0.00 0.00 0.00 0.00 0.00 0.00 0.00 0.00 0.00 0.00 0.00 0.00 0.00 0.00 0.00 0.00 0.00 0.00 0.00 0.00 0.00 0.00 0.00 0.00 0.00 0.00 0.00 0.00 0.00 0.00 0.00 0.00 0.00 0.00 0.00 0.00 0.00 0.00 0.00 0.00 0.00 0.00 0.03 0.01 0.11 0.09 0.04 0.13 0.09 0.11
0.03 0.03 0.02 0.03 0.03 0.03 0.03 0.03 0.03 0.03 0.02 0.01 0.02 0.01 0.03 0.02 0.03 0.01 0.02 0.02 0.01 0.01 0.01 0.02 0.01 0.00 0.01 0.00 0.00 0.00 0.00 0.00 0.00 0.00 0.00 0.00 0.00 0.00 0.00 0.00 0.00 0.00 0.00 0.00 0.00 0.00 0.00 0.00 0.00 0.00 0.00 0.00 0.00 0.00 0.00 0.00 0.00 0.00 0.00 0.00 0.00 0.00 0.00 0.00 0.00 0.00 0.00 0.00 0.00 0.00 0.00 0.00 0.00 0.00 0.00 0.03 0.00 0.00 0.01 0.03 0.05 0.07 0.10 0.08 0.12 0.09 0.10 0.13
0.02 0.02 0.03 0.03 0.02 0.03 0.04 0.02 0.03 0.03 0.04 0.03 0.03 0.03 0.02 0.02 0.02 0.03 0.01 0.01 0.01 0.01 0.01 0.00 0.01 0.01 0.00 0.00 0.00 0.00 0.00 0.00 0.00 0.00 0.00 0.00 0.00 0.00 0.00 0.00 0.00 0.00 0.00 0.00 0.00 0.00 0.00 0.00 0.00 0.00 0.00 0.00 0.00 0.00 0.00 0.00 0.00 0.00 0.00 0.00 0.00 0.00 0.00 0.00 0.00 0.00 0.00 0.00 0.00 0.00 0.00 0.00 0.00 0.00 0.00 0.00 0.01 0.01 0.03 0.11 0.06 0.10 0.15 0.14 0.15 0.15 0.15 0.18
0.02 0.03 0.03 0.03 0.02 0.03 0.03 0.02 0.03 0.03 0.03 0.04 0.02 0.03 0.03 0.02 0.02 0.02 0.03 0.02 0.01 0.01 0.01 0.01 0.00 0.00 0.00 0.00 0.00 0.00 0.00 0.00 0.00 0.00 0.00 0.00 0.00 0.00 0.00 0.00 0.00 0.00 0.00 0.00 0.00 0.00 0.00 0.00 0.00 0.00 0.00 0.00 0.00 0.00 0.00 0.00 0.00 0.00 0.00 0.00 0.00 0.00 0.00 0.00 0.00 0.00 0.00 0.00 0.00 0.00 0.00 0.00 0.00 0.00 0.00 0.01 0.04 0.03 0.09 0.07 0.14 0.09 0.28 0.17 0.09 0.14 0.18 0.27
0.03 0.03 0.02 0.02 0.02 0.02 0.03 0.02 0.02 0.03 0.04 0.03 0.03 0.03 0.04 0.03 0.02 0.02 0.02 0.01 0.02 0.02 0.02 0.01 0.00 0.00 0.00 0.00 0.00 0.00 0.00 0.00 0.00 0.00 0.00 0.00 0.00 0.00 0.00 0.00 0.00 0.00 0.00 0.00 0.00 0.00 0.00 0.00 0.00 0.00 0.00 0.00 0.00 0.00 0.00 0.00 0.00 0.00 0.00 0.00 0.00 0.00 0.00 0.00 0.00 0.00 0.00 0.00 0.00 0.00 0.00 0.00 0.00 0.00 0.00 0.01 0.03 0.19 0.06 0.02 0.04 0.17 0.11 0.21 0.16 0.19 0.22 0.50
0.02 0.02 0.02 0.02 0.02 0.02 0.03 0.03 0.04 0.03 0.03 0.03 0.03 0.02 0.02 0.03 0.03 0.03 0.01 0.02 0.02 0.01 0.01 0.01 0.01 0.00 0.00 0.00 0.00 0.00 0.00 0.00 0.00 0.00 0.00 0.00 0.00 0.00 0.00 0.00 0.00 0.00 0.00 0.00 0.00 0.00 0.00 0.00 0.00 0.00 0.00 0.00 0.00 0.00 0.00 0.00 0.00 0.00 0.00 0.00 0.00 0.00 0.00 0.00 0.00 0.00 0.00 0.00 0.00 0.00 0.00 0.00 0.00 0.00 0.00 0.00 0.00 0.03 0.02 0.03 0.05 0.10 0.17 0.24 0.15 0.19 0.25 0.54
0.02 0.02 0.01 0.02 0.02 0.03 0.04 0.04 0.04 0.03 0.03 0.04 0.03 0.02 0.01 0.02 0.02 0.02 0.03 0.02 0.01 0.01 0.00 0.01 0.00 0.00 0.00 0.00 0.00 0.00 0.00 0.00 0.00 0.00 0.00 0.00 0.00 0.00 0.00 0.00 0.00 0.00 0.00 0.00 0.00 0.00 0.00 0.00 0.00 0.00 0.00 0.00 0.00 0.00 0.00 0.00 0.00 0.00 0.00 0.00 0.00 0.00 0.00 0.00 0.00 0.00 0.00 0.00 0.00 0.00 0.00 0.00 0.00 0.00 0.00 0.00 0.00 0.00 0.02 0.18 0.01 0.04 0.13 0.13 0.24 0.55 0.42 0.29
0.01 0.01 0.02 0.02 0.02 0.02 0.02 0.03 0.03 0.02 0.02 0.03 0.03 0.02 0.02 0.02 0.03 0.02 0.02 0.02 0.02 0.01 0.01 0.00 0.00 0.00 0.00 0.00 0.00 0.00 0.00 0.00 0.00 0.00 0.00 0.00 0.00 0.00 0.00 0.00 0.00 0.00 0.00 0.00 0.00 0.00 0.00 0.00 0.00 0.00 0.00 0.00 0.00 0.00 0.00 0.00 0.00 0.00 0.00 0.00 0.00 0.00 0.00 0.00 0.00 0.00 0.00 0.00 0.00 0.00 0.00 0.00 0.00 0.00 0.00 0.00 0.00 0.00 0.00 0.02 0.02 0.04 0.15 0.16 0.14 0.21 0.54 0.75
0.01 0.01 0.02 0.02 0.02 0.01 0.01 0.02 0.01 0.02 0.02 0.02 0.02 0.02 0.03 0.03 0.03 0.02 0.01 0.02 0.02 0.03 0.01 0.00 0.00 0.00 0.00 0.00 0.00 0.00 0.00 0.00 0.00 0.00 0.00 0.00 0.00 0.00 0.00 0.00 0.00 0.00 0.00 0.00 0.00 0.00 0.00 0.00 0.00 0.00 0.00 0.00 0.00 0.00 0.00 0.00 0.00 0.00 0.00 0.00 0.00 0.00 0.00 0.00 0.00 0.00 0.00 0.00 0.00 0.00 0.00 0.00 0.00 0.00 0.00 0.00 0.00 0.00 0.00 0.01 0.01 0.04 0.11 0.17 0.13 0.18 0.31 0.55
0.01 0.01 0.01 0.01 0.01 0.01 0.01 0.01 0.01 0.02 0.02 0.03 0.02 0.03 0.03 0.03 0.02 0.02 0.02 0.02 0.02 0.01 0.01 0.00 0.00 0.00 0.00 0.00 0.00 0.00 0.00 0.00 0.00 0.00 0.00 0.00 0.00 0.00 0.00 0.00 0.00 0.00 0.00 0.00 0.00 0.00 0.00 0.00 0.00 0.00 0.00 0.00 0.00 0.00 0.00 0.00 0.00 0.00 0.00 0.00 0.00 0.00 0.00 0.00 0.00 0.00 0.00 0.00 0.00 0.00 0.00 0.00 0.00 0.00 0.01 0.01 0.00 0.01 0.00 0.01 0.04 0.04 0.08 0.11 0.13 0.27 0.49 0.33
0.01 0.01 0.01 0.01 0.01 0.01 0.02 0.02 0.02 0.02 0.03 0.02 0.03 0.03 0.02 0.03 0.03 0.02 0.02 0.01 0.01 0.01 0.01 0.00 0.00 0.00 0.00 0.00 0.00 0.00 0.00 0.00 0.00 0.00 0.00 0.00 0.00 0.00 0.00 0.00 0.00 0.00 0.00 0.00 0.00 0.00 0.00 0.00 0.00 0.00 0.00 0.00 0.00 0.00 0.00 0.00 0.00 0.00 0.00 0.00 0.00 0.00 0.00 0.00 0.00 0.00 0.00 0.00 0.00 0.00 0.00 0.00 0.00 0.00 0.00 0.01 0.01 0.00 0.00 0.02 0.03 0.03 0.07 0.09 0.10 0.28 0.48 0.36
0.01 0.01 0.01 0.00 0.02 0.02 0.02 0.02 0.02 0.02 0.02 0.02 0.02 0.02 0.02 0.02 0.02 0.02 0.02 0.01 0.01 0.01 0.00 0.00 0.01 0.02 0.00 0.00 0.00 0.00 0.00 0.00 0.00 0.00 0.00 0.00 0.00 0.00 0.00 0.00 0.00 0.00 0.00 0.00 0.00 0.00 0.00 0.00 0.00 0.00 0.00 0.00 0.00 0.00 0.00 0.00 0.00 0.00 0.00 0.00 0.00 0.00 0.00 0.00 0.00 0.00 0.00 0.00 0.00 0.00 0.00 0.00 0.00 0.00 0.00 0.00 0.00 0.01 0.00 0.01 0.06 0.04 0.08 0.08 0.08 0.23 0.26 0.37
0.01 0.01 0.02 0.01 0.01 0.02 0.01 0.01 0.01 0.01 0.02 0.02 0.02 0.02 0.01 0.01 0.01 0.01 0.01 0.01 0.00 0.01 0.00 0.00 0.00 0.00 0.00 0.00 0.00 0.00 0.00 0.00 0.00 0.00 0.00 0.00 0.00 0.00 0.00 0.00 0.00 0.00 0.00 0.00 0.00 0.00 0.00 0.00 0.00 0.00 0.00 0.00 0.00 0.00 0.00 0.00 0.00 0.00 0.00 0.00 0.00 0.00 0.00 0.00 0.00 0.00 0.00 0.00 0.00 0.00 0.00 0.00 0.00 0.00 0.00 0.00 0.01 0.01 0.01 0.02 0.04 0.07 0.13 0.14 0.18 0.19 0.50 0.36
0.01 0.01 0.01 0.01 0.01 0.01 0.01 0.01 0.01 0.01 0.01 0.01 0.01 0.01 0.01 0.01 0.01 0.01 0.01 0.02 0.02 0.02 0.03 0.02 0.01 0.03 0.01 0.00 0.00 0.00 0.00 0.00 0.00 0.00 0.00 0.00 0.00 0.00 0.00 0.00 0.00 0.00 0.00 0.00 0.00 0.00 0.00 0.00 0.00 0.00 0.00 0.00 0.00 0.00 0.00 0.00 0.00 0.00 0.00 0.00 0.00 0.00 0.00 0.00 0.00 0.00 0.00 0.00 0.00 0.00 0.00 0.00 0.00 0.00 0.00 0.00 0.00 0.00 0.01 0.02 0.05 0.10 0.11 0.23 0.31 0.21 0.20 0.36
0.01 0.01 0.02 0.01 0.01 0.01 0.02 0.01 0.01 0.01 0.01 0.01 0.01 0.01 0.01 0.01 0.01 0.01 0.01 0.01 0.02 0.00 0.00 0.05 0.02 0.01 0.00 0.00 0.00 0.00 0.00 0.00 0.00 0.00 0.00 0.00 0.00 0.00 0.00 0.00 0.00 0.00 0.00 0.00 0.00 0.00 0.00 0.00 0.00 0.00 0.00 0.00 0.00 0.00 0.00 0.00 0.00 0.00 0.00 0.00 0.00 0.00 0.00 0.00 0.00 0.00 0.00 0.00 0.00 0.00 0.00 0.00 0.00 0.00 0.00 0.00 0.01 0.00 0.00 0.02 0.04 0.09 0.07 0.16 0.29 0.22 0.12 0.16
0.01 0.03 0.01 0.01 0.01 0.01 0.01 0.01 0.01 0.01 0.01 0.02 0.01 0.01 0.01 0.01 0.01 0.01 0.01 0.01 0.00 0.00 0.01 0.00 0.01 0.00 0.00 0.00 0.00 0.00 0.00 0.00 0.00 0.00 0.00 0.00 0.00 0.00 0.00 0.00 0.00 0.00 0.00 0.00 0.00 0.00 0.00 0.00 0.00 0.00 0.00 0.00 0.00 0.00 0.00 0.00 0.00 0.00 0.00 0.00 0.00 0.00 0.00 0.00 0.00 0.00 0.00 0.00 0.00 0.00 0.00 0.00 0.00 0.00 0.01 0.01 0.01 0.01 0.01 0.02 0.05 0.05 0.25 0.18 0.36 0.27 0.12 0.15
0.01 0.01 0.01 0.01 0.02 0.01 0.01 0.01 0.01 0.01 0.01 0.01 0.00 0.00 0.01 0.01 0.00 0.00 0.01 0.02 0.02 0.00 0.03 0.00 0.00 0.00 0.01 0.00 0.00 0.00 0.00 0.00 0.00 0.00 0.00 0.00 0.00 0.00 0.00 0.00 0.00 0.00 0.00 0.00 0.00 0.00 0.00 0.00 0.00 0.00 0.00 0.00 0.00 0.00 0.00 0.00 0.00 0.00 0.00 0.00 0.00 0.00 0.00 0.00 0.00 0.00 0.00 0.00 0.00 0.00 0.00 0.00 0.00 0.00 0.01 0.02 0.01 0.01 0.01 0.01 0.02 0.02 0.08 0.08 0.19 0.14 0.26 0.10
0.01 0.01 0.01 0.01 0.00 0.01 0.01 0.01 0.01 0.01 0.01 0.00 0.01 0.00 0.01 0.00 0.00 0.00 0.01 0.00 0.01 0.00 0.01 0.00 0.00 0.00 0.00 0.00 0.00 0.00 0.00 0.00 0.00 0.00 0.00 0.00 0.00 0.00 0.00 0.00 0.00 0.00 0.00 0.00 0.00 0.00 0.00 0.00 0.00 0.00 0.00 0.00 0.00 0.00 0.00 0.00 0.00 0.00 0.00 0.00 0.00 0.00 0.00 0.00 0.00 0.00 0.00 0.00 0.00 0.00 0.00 0.00 0.00 0.00 0.01 0.00 0.01 0.01 0.01 0.01 0.01 0.04 0.04 0.12 0.17 0.08 0.11 0.23
0.01 0.01 0.00 0.01 0.01 0.01 0.01 0.01 0.01 0.01 0.01 0.00 0.01 0.01 0.00 0.01 0.01 0.00 0.00 0.01 0.00 0.00 0.00 0.00 0.00 0.00 0.02 0.00 0.00 0.00 0.00 0.00 0.00 0.00 0.00 0.00 0.00 0.00 0.00 0.00 0.00 0.00 0.00 0.00 0.00 0.00 0.00 0.00 0.00 0.00 0.00 0.00 0.00 0.00 0.00 0.00 0.00 0.00 0.00 0.00 0.00 0.01 0.00 0.00 0.00 0.00 0.00 0.00 0.00 0.00 0.00 0.00 0.00 0.00 0.01 0.02 0.01 0.01 0.00 0.01 0.01 0.02 0.05 0.07 0.23 0.35 0.22 0.06
0.01 0.01 0.01 0.01 0.01 0.01 0.02 0.00 0.00 0.00 0.00 0.00 0.00 0.00 0.00 0.00 0.01 0.00 0.00 0.01 0.00 0.00 0.00 0.00 0.00 0.00 0.00 0.00 0.00 0.00 0.00 0.00 0.00 0.00 0.00 0.00 0.00 0.00 0.00 0.00 0.00 0.00 0.00 0.00 0.00 0.00 0.00 0.00 0.00 0.00 0.00 0.00 0.00 0.00 0.00 0.00 0.00 0.00 0.00 0.00 0.01 0.00 0.00 0.00 0.00 0.00 0.00 0.00 0.00 0.00 0.00 0.00 0.00 0.00 0.00 0.01 0.01 0.01 0.01 0.01 0.02 0.02 0.03 0.09 0.11 0.10 0.29 0.17
0.01 0.02 0.01 0.01 0.01 0.01 0.01 0.01 0.00 0.00 0.01 0.02 0.00 0.00 0.01 0.00 0.00 0.02 0.00 0.00 0.00 0.00 0.00 0.00 0.00 0.00 0.00 0.00 0.00 0.00 0.00 0.00 0.00 0.00 0.00 0.00 0.00 0.00 0.00 0.00 0.00 0.00 0.00 0.00 0.00 0.00 0.00 0.00 0.00 0.01 0.00 0.00 0.00 0.00 0.00 0.00 0.00 0.00 0.00 0.00 0.00 0.00 0.00 0.00 0.00 0.00 0.00 0.00 0.00 0.00 0.00 0.00 0.00 0.00 0.00 0.01 0.01 0.01 0.01 0.01 0.01 0.01 0.01 0.01 0.07 0.07 0.09 0.35
0.01 0.01 0.01 0.01 0.01 0.01 0.00 0.01 0.00 0.00 0.01 0.01 0.00 0.00 0.00 0.00 0.00 0.00 0.00 0.00 0.00 0.00 0.00 0.00 0.00 0.00 0.00 0.00 0.00 0.00 0.00 0.00 0.00 0.00 0.00 0.00 0.00 0.00 0.00 0.00 0.00 0.00 0.00 0.00 0.00 0.00 0.00 0.00 0.00 0.00 0.00 0.00 0.00 0.00 0.00 0.00 0.00 0.00 0.00 0.00 0.00 0.00 0.00 0.00 0.00 0.00 0.00 0.00 0.00 0.00 0.00 0.00 0.00 0.00 0.01 0.01 0.01 0.01 0.01 0.01 0.01 0.01 0.01 0.01 0.02 0.10 0.10 0.28
0.02 0.01 0.01 0.01 0.01 0.00 0.01 0.00 0.01 0.01 0.00 0.00 0.00 0.00 0.00 0.00 0.00 0.00 0.00 0.00 0.00 0.00 0.00 0.00 0.00 0.00 0.00 0.00 0.00 0.00 0.00 0.00 0.00 0.00 0.00 0.00 0.00 0.00 0.00 0.00 0.00 0.00 0.00 0.00 0.00 0.00 0.00 0.00 0.00 0.00 0.00 0.00 0.00 0.00 0.00 0.00 0.00 0.00 0.00 0.00 0.00 0.00 0.00 0.03 0.00 0.00 0.00 0.00 0.00 0.00 0.00 0.00 0.00 0.00 0.00 0.02 0.02 0.01 0.01 0.01 0.01 0.01 0.01 0.01 0.02 0.03 0.11 0.22
0.01 0.02 0.01 0.01 0.01 0.01 0.00 0.00 0.01 0.00 0.00 0.00 0.00 0.00 0.00 0.00 0.00 0.00 0.00 0.00 0.00 0.00 0.00 0.00 0.00 0.00 0.00 0.00 0.00 0.00 0.00 0.00 0.00 0.00 0.00 0.00 0.00 0.00 0.00 0.00 0.00 0.00 0.00 0.00 0.00 0.00 0.00 0.00 0.00 0.00 0.00 0.00 0.00 0.00 0.00 0.00 0.00 0.00 0.00 0.00 0.00 0.00 0.00 0.00 0.08 0.00 0.00 0.00 0.00 0.00 0.00 0.01 0.00 0.00 0.01 0.01 0.00 0.00 0.00 0.01 0.01 0.00 0.01 0.01 0.04 0.04 0.05 0.06
0.01 0.01 0.01 0.00 0.00 0.01 0.00 0.00 0.01 0.00 0.00 0.00 0.00 0.00 0.00 0.00 0.00 0.00 0.00 0.00 0.00 0.00 0.00 0.00 0.00 0.00 0.00 0.00 0.00 0.00 0.00 0.00 0.00 0.00 0.00 0.00 0.00 0.00 0.00 0.00 0.00 0.00 0.00 0.00 0.00 0.00 0.00 0.01 0.00 0.00 0.00 0.00 0.00 0.00 0.00 0.00 0.00 0.00 0.00 0.00 0.00 0.00 0.00 0.00 0.00 0.00 0.00 0.02 0.00 0.00 0.01 0.03 0.00 0.00 0.00 0.01 0.01 0.01 0.00 0.01 0.01 0.01 0.00 0.01 0.02 0.04 0.19 0.22
0.01 0.00 0.01 0.01 0.01 0.00 0.00 0.00 0.01 0.00 0.00 0.00 0.00 0.00 0.00 0.00 0.00 0.00 0.00 0.01 0.01 0.01 0.00 0.00 0.00 0.00 0.00 0.00 0.00 0.00 0.00 0.00 0.00 0.00 0.00 0.00 0.00 0.00 0.00 0.00 0.00 0.00 0.00 0.00 0.00 0.00 0.00 0.00 0.00 0.00 0.00 0.00 0.00 0.00 0.00 0.00 0.00 0.00 0.01 0.00 0.00 0.00 0.00 0.00 0.00 0.00 0.00 0.03 0.08 0.00 0.02 0.04 0.00 0.00 0.01 0.00 0.00 0.01 0.00 0.01 0.02 0.02 0.01 0.02 0.07 0.05 0.07 0.07
0.00 0.01 0.01 0.00 0.00 0.02 0.00 0.00 0.00 0.00 0.00 0.00 0.00 0.00 0.00 0.00 0.00 0.00 0.01 0.02 0.05 0.02 0.00 0.00 0.00 0.00 0.00 0.00 0.00 0.00 0.01 0.01 0.00 0.00 0.00 0.00 0.00 0.00 0.00 0.00 0.00 0.00 0.00 0.00 0.00 0.00 0.00 0.00 0.00 0.00 0.00 0.00 0.00 0.00 0.00 0.00 0.00 0.01 0.01 0.00 0.00 0.00 0.00 0.00 0.00 0.00 0.01 0.00 0.00 0.00 0.00 0.03 0.01 0.03 0.00 0.00 0.00 0.01 0.01 0.01 0.02 0.03 0.05 0.06 0.06 0.07 0.21 0.08
0.01 0.00 0.01 0.01 0.00 0.02 0.03 0.01 0.00 0.00 0.00 0.00 0.00 0.00 0.00 0.00 0.00 0.00 0.01 0.01 0.02 0.00 0.01 0.00 0.00 0.00 0.00 0.00 0.00 0.00 0.00 0.00 0.00 0.00 0.00 0.00 0.00 0.00 0.00 0.00 0.00 0.00 0.00 0.00 0.01 0.01 0.00 0.00 0.00 0.00 0.00 0.00 0.00 0.00 0.00 0.00 0.00 0.01 0.00 0.00 0.00 0.00 0.00 0.00 0.00 0.00 0.02 0.01 0.05 0.01 0.00 0.00 0.02 0.05 0.00 0.00 0.00 0.00 0.04 0.04 0.07 0.06 0.05 0.17 0.15 0.14 0.09 0.08
0.00 0.00 0.01 0.01 0.01 0.01 0.01 0.01 0.01 0.00 0.00 0.00 0.00 0.00 0.00 0.00 0.00 0.00 0.21 0.09 0.12 0.00 0.00 0.00 0.00 0.00 0.00 0.00 0.00 0.00 0.00 0.00 0.00 0.00 0.00 0.00 0.00 0.00 0.00 0.00 0.00 0.00 0.00 0.00 0.00 0.00 0.00 0.00 0.00 0.00 0.00 0.00 0.00 0.00 0.00 0.00 0.00 0.00 0.00 0.00 0.00 0.00 0.00 0.00 0.01 0.01 0.05 0.00 0.02 0.04 0.08 0.02 0.03 0.02 0.03 0.01 0.01 0.03 0.14 0.11 0.10 0.11 0.11 0.11 0.15 0.24 0.13 0.14
0.01 0.00 0.01 0.01 0.01 0.00 0.00 0.02 0.00 0.00 0.00 0.00 0.00 0.00 0.00 0.00 0.00 0.08 0.04 0.01 0.00 0.06 0.00 0.01 0.00 0.00 0.00 0.00 0.00 0.00 0.00 0.00 0.00 0.00 0.00 0.00 0.00 0.00 0.00 0.00 0.00 0.00 0.00 0.00 0.00 0.00 0.00 0.00 0.00 0.00 0.00 0.00 0.00 0.00 0.00 0.00 0.00 0.00 0.00 0.00 0.00 0.00 0.01 0.01 0.00 0.06 0.05 0.00 0.01 0.02 0.03 0.00 0.07 0.08 0.05 0.04 0.06 0.10 0.03 0.10 0.09 0.09 0.14 0.16 0.23 0.22 0.17 0.14
0.00 0.01 0.01 0.02 0.03 0.00 0.00 0.00 0.00 0.00 0.00 0.00 0.00 0.01 0.01 0.00 0.11 0.07 0.01 0.02 0.00 0.02 0.00 0.00 0.00 0.00 0.00 0.00 0.00 0.00 0.00 0.00 0.00 0.00 0.00 0.00 0.00 0.00 0.00 0.00 0.00 0.00 0.00 0.00 0.00 0.00 0.00 0.00 0.00 0.00 0.00 0.00 0.00 0.00 0.00 0.00 0.00 0.00 0.00 0.02 0.00 0.02 0.00 0.01 0.04 0.02 0.07 0.01 0.04 0.02 0.00 0.02 0.07 0.08 0.06 0.06 0.04 0.03 0.05 0.09 0.07 0.10 0.09 0.10 0.14 0.15 0.13 0.15
0.01 0.01 0.01 0.05 0.01 0.02 0.01 0.00 0.00 0.00 0.00 0.00 0.01 0.02 0.01 0.06 0.01 0.05 0.01 0.00 0.09 0.03 0.01 0.02 0.00 0.00 0.00 0.00 0.00 0.00 0.00 0.00 0.00 0.00 0.00 0.00 0.00 0.00 0.00 0.00 0.00 0.00 0.00 0.01 0.07 0.00 0.01 0.00 0.00 0.00 0.00 0.00 0.00 0.00 0.00 0.00 0.00 0.00 0.00 0.02 0.22 0.22 0.01 0.05 0.05 0.01 0.00 0.01 0.03 0.01 0.02 0.03 0.01 0.15 0.08 0.05 0.12 0.07 0.05 0.09 0.09 0.09 0.08 0.06 0.11 0.11 0.17 0.23
0.00 0.01 0.02 0.02 0.01 0.01 0.00 0.00 0.00 0.00 0.00 0.00 0.01 0.10 0.08 0.06 0.01 0.03 0.02 0.00 0.10 0.02 0.02 0.00 0.01 0.00 0.01 0.00 0.00 0.00 0.00 0.01 0.01 0.00 0.00 0.00 0.00 0.00 0.00 0.00 0.00 0.00 0.03 0.02 0.02 0.01 0.01 0.00 0.00 0.00 0.00 0.00 0.00 0.00 0.01 0.01 0.00 0.00 0.01 0.11 0.06 0.13 0.07 0.02 0.06 0.03 0.08 0.02 0.01 0.05 0.04 0.04 0.15 0.18 0.05 0.10 0.12 0.10 0.11 0.07 0.07 0.14 0.12 0.14 0.24 0.18 0.18 0.42
0.00 0.01 0.01 0.00 0.00 0.00 0.00 0.00 0.00 0.00 0.00 0.00 0.00 0.00 0.00 0.01 0.01 0.00 0.02 0.00 0.16 0.01 0.02 0.00 0.00 0.00 0.00 0.03 0.04 0.00 0.02 0.00 0.00 0.00 0.00 0.05 0.00 0.02 0.00 0.00 0.00 0.00 0.00 0.04 0.03 0.01 0.01 0.07 0.00 0.00 0.00 0.00 0.00 0.00 0.00 0.05 0.01 0.01 0.00 0.01 0.11 0.16 0.08 0.02 0.04 0.08 0.02 0.16 0.03 0.01 0.00 0.02 0.01 0.59 0.22 0.15 0.11 0.06 0.07 0.14 0.13 0.12 0.29 0.32 0.37 0.46 0.71 2.05
0.00 0.00 0.00 0.00 0.00 0.00 0.00 0.00 0.00 0.00 0.00 0.00 0.01 0.00 0.00 0.00 0.00 0.02 0.02 0.01 0.01 0.22 0.03 0.00 0.00 0.01 0.00 0.00 0.02 0.03 0.00 0.24 0.00 0.01 0.00 0.00 0.02 0.00 0.01 0.00 0.00 0.00 0.00 0.00 0.05 0.00 0.00 0.06 0.06 0.00 0.00 0.00 0.00 0.00 0.00 0.00 0.03 0.00 0.01 0.01 0.04 0.02 0.01 0.10 0.34 0.04 0.21 0.09 0.02 0.03 0.01 0.07 0.40 0.59 0.32 0.11 0.09 0.07 0.08 0.11 0.12 0.31 0.29 0.39 0.42 0.92 1.59 1.47
0.00 0.00 0.00 0.00 0.00 0.00 0.00 0.00 0.00 0.00 0.00 0.00 0.02 0.00 0.00 0.00 0.01 0.01 0.03 0.01 0.01 0.11 0.05 0.00 0.00 0.01 0.01 0.01 0.00 0.01 0.01 0.05 0.12 0.01 0.06 0.00 0.01 0.02 0.00 0.00 0.00 0.00 0.01 0.00 0.04 0.04 0.00 0.11 0.01 0.00 0.00 0.00 0.00 0.00 0.00 0.00 0.16 0.17 0.00 0.06 0.03 0.01 0.01 0.02 0.00 0.00 0.00 0.00 0.02 0.01 0.06 0.07 0.17 0.19 0.11 0.31 0.24 0.18 0.03 0.11 0.08 0.36 0.68 0.83 1.31 1.05 0.74 0.89
0.01 0.00 0.01 0.00 0.00 0.00 0.00 0.00 0.00 0.00 0.00 0.00 0.01 0.01 0.01 0.00 0.01 0.01 0.05 0.03 0.06 0.11 0.16 0.06 0.01 0.00 0.04 0.01 0.01 0.00 0.06 0.00 0.12 0.02 0.14 0.01 0.11 0.00 0.00 0.00 0.00 0.01 0.00 0.00 0.01 0.01 0.06 0.23 0.01 0.01 0.00 0.00 0.00 0.00 0.00 0.00 0.00 0.00 0.04 0.04 0.00 0.00 0.02 0.03 0.14 0.06 0.00 0.00 0.03 0.01 0.03 0.13 0.04 0.49 0.14 0.15 0.33 0.26 0.23 0.20 0.17 0.27 0.61 0.84 1.20 0.84 0.59 1.16
0.02 0.01 0.04 0.03 0.01 0.00 0.00 0.00 0.00 0.00 0.00 0.00 0.00 0.00 0.00 0.00 0.00 0.01 0.02 0.01 0.04 0.03 0.14 0.08 0.03 0.00 0.01 0.02 0.02 0.01 0.02 0.03 0.27 0.03 0.12 0.02 0.24 0.00 0.03 0.02 0.01 0.00 0.00 0.00 0.01 0.07 0.00 0.06 0.02 0.00 0.00 0.00 0.00 0.00 0.00 0.00 0.00 0.00 0.05 0.01 0.03 0.06 0.06 0.02 0.00 0.01 0.03 0.01 0.08 0.04 0.06 0.08 0.14 0.56 0.21 0.19 0.27 0.31 0.33 0.16 0.14 0.23 0.61 0.97 1.13 1.05 0.81 1.04
0.04 0.05 0.15 0.01 0.00 0.00 0.00 0.00 0.00 0.01 0.01 0.00 0.00 0.00 0.00 0.01 0.00 0.02 0.00 0.01 0.01 0.03 0.07 0.03 0.04 0.00 0.00 0.01 0.02 0.01 0.02 0.10 0.01 0.20 0.09 0.22 0.16 0.06 0.08 0.01 0.06 0.00 0.00 0.00 0.00 0.01 0.00 0.01 0.06 0.00 0.00 0.03 0.00 0.00 0.01 0.01 0.00 0.00 0.00 0.01 0.00 0.00 0.10 0.06 0.02 0.10 0.01 0.17 0.02 0.04 0.06 0.15 0.17 0.46 0.15 0.25 0.19 0.28 0.20 0.26 0.31 0.41 0.31 0.39 0.36 0.38 0.45 0.53
0.05 0.11 0.49 0.01 0.00 0.00 0.00 0.00 0.01 0.00 0.00 0.01 0.02 0.00 0.00 0.01 0.01 0.01 0.01 0.00 0.05 0.05 0.04 0.02 0.01 0.03 0.00 0.00 0.00 0.05 0.09 0.08 0.09 0.34 0.07 0.29 0.15 0.05 0.04 0.00 0.05 0.01 0.00 0.00 0.00 0.00 0.07 0.00 0.13 0.04 0.00 0.00 0.10 0.00 0.01 0.01 0.10 0.01 0.00 0.01 0.00 0.01 0.07 0.01 0.11 0.04 0.08 0.10 0.06 0.09 0.08 0.42 0.36 0.22 0.24 0.20 0.51 0.40 0.27 0.22 0.33 0.48 0.84 0.63 1.11 1.07 0.81 0.38
0.04 0.32 0.45 0.01 0.01 0.00 0.00 0.00 0.01 0.00 0.01 0.00 0.00 0.00 0.00 0.02 0.02 0.03 0.00 0.00 0.04 0.03 0.02 0.01 0.02 0.02 0.00 0.02 0.00 0.00 0.02 0.03 0.08 0.20 0.07 0.14 0.10 0.39 0.03 0.07 0.01 0.19 0.00 0.02 0.00 0.03 0.01 0.00 0.01 0.13 0.02 0.01 0.01 0.00 0.00 0.00 0.00 0.01 0.01 0.03 0.02 0.08 0.12 0.13 0.08 0.00 0.09 0.03 0.11 0.10 0.20 0.29 0.52 0.14 0.32 0.33 0.33 0.79 0.58 0.59 0.58 0.71 0.57 0.80 0.91 0.65 0.65 0.97
0.12 0.41 0.68 0.02 0.12 0.00 0.02 0.19 0.05 0.07 0.04 0.07 0.03 0.00 0.01 0.02 0.03 0.03 0.01 0.01 0.02 0.02 0.01 0.00 0.00 0.00 0.00 0.00 0.00 0.00 0.00 0.01 0.06 0.13 0.10 0.24 0.21 0.10 0.12 0.01 0.01 0.03 0.13 0.20 0.11 0.04 0.02 0.03 0.05 0.04 0.09 0.40 0.07 0.03 0.00 0.00 0.00 0.00 0.00 0.02 0.00 0.05 0.02 0.09 0.08 0.16 0.05 0.03 0.04 0.15 0.13 0.54 0.46 0.25 1.01 0.93 0.46 0.49 0.61 0.53 0.44 0.60 0.66 0.71 0.79 0.90 0.41 0.53
0.29 0.76 0.61 0.06 0.01 0.02 0.09 0.24 0.08 0.09 0.11 0.17 0.03 0.01 0.00 0.04 0.04 0.02 0.03 0.03 0.02 0.01 0.00 0.00 0.00 0.00 0.00 0.00 0.01 0.00 0.00 0.03 0.02 0.19 0.10 0.19 0.18 0.14 0.05 0.07 0.01 0.08 0.04 0.16 0.02 0.03 0.00 0.00 0.01 0.06 0.04 0.05 0.00 0.03 0.04 0.00 0.00 0.00 0.00 0.00 0.01 0.13 0.08 0.09 0.21 0.24 0.17 0.21 0.06 0.08 0.03 0.51 0.25 0.12 0.49 0.84 1.06 1.69 1.17 0.63 0.49 0.35 0.17 0.55 1.02 0.80 0.67 0.23
0.49 1.62 0.89 0.06 0.01 0.05 0.16 0.26 0.15 0.12 0.19 0.05 0.01 0.05 0.02 0.06 0.02 0.03 0.01 0.04 0.01 0.02 0.02 0.00 0.00 0.00 0.01 0.00 0.00 0.00 0.02 0.01 0.01 0.02 0.09 0.11 0.20 0.02 0.03 0.02 0.03 0.09 0.10 0.29 0.20 0.33 0.19 0.05 0.00 0.23 0.14 0.26 0.16 0.07 0.01 0.00 0.00 0.01 0.08 0.02 0.01 0.02 0.01 0.05 0.07 0.09 0.04 0.07 0.13 0.18 0.31 0.72 0.51 0.36 0.54 0.45 0.95 1.59 1.41 1.12 1.04 0.93 1.07 1.35 1.03 0.57 0.47 0.83
0.97 0.70 0.40 0.61 0.03 0.08 0.58 0.62 0.12 0.10 0.11 0.11 0.11 0.12 0.09 0.03 0.01 0.02 0.04 0.09 0.01 0.00 0.00 0.01 0.00 0.04 0.00 0.00 0.00 0.00 0.00 0.01 0.10 0.01 0.02 0.12 0.29 0.01 0.02 0.01 0.01 0.10 0.02 0.01 0.01 0.18 0.11 0.33 0.08 0.10 0.33 0.32 0.39 0.34 0.34 0.13 0.11 0.03 0.02 0.03 0.02 0.00 0.19 0.13 0.03 0.04 0.05 0.06 0.06 0.09 0.21 0.33 0.33 0.27 0.36 0.30 0.31 0.40 0.73 1.07 0.74 0.53 0.67 0.72 0.60 0.67 0.52 0.76
0.93 0.52 0.38 0.28 0.77 0.84 0.28 0.19 0.05 0.12 0.12 0.10 0.05 0.19 0.07 0.15 0.03 0.01 0.00 0.02 0.00 0.01 0.05 0.03 0.00 0.00 0.00 0.00 0.01 0.00 0.01 0.01 0.01 0.06 0.04 0.14 0.19 0.09 0.02 0.05 0.02 0.02 0.00 0.00 0.03 0.10 0.20 0.29 0.34 0.13 0.30 0.49 0.34 0.28 0.18 0.12 0.09 0.08 0.23 0.12 0.12 0.03 0.00 0.06 0.15 0.22 0.12 0.06 0.05 0.14 0.14 0.27 0.24 0.36 0.23 0.25 0.33 0.51 0.35 0.34 0.27 0.51 0.45 0.37 0.38 0.48 0.46 0.76
0.78 0.69 0.09 0.17 0.21 0.33 0.61 0.33 0.21 0.26 0.30 0.17 0.46 0.05 0.09 0.06 0.13 0.07 0.01 0.05 0.01 0.06 0.03 0.08 0.01 0.02 0.02 0.00 0.02 0.01 0.01 0.02 0.01 0.01 0.04 0.13 0.07 0.06 0.03 0.08 0.16 0.02 0.00 0.02 0.05 0.10 0.21 0.12 0.13 0.46 0.22 0.21 0.18 0.20 0.13 0.05 0.18 0.17 0.18 0.11 0.07 0.08 0.06 0.05 0.01 0.11 0.22 0.12 0.27 0.50 0.32 0.19 0.31 0.21 0.20 0.19 0.19 0.24 0.37 0.40 0.27 0.30 0.25 0.24 0.15 0.17 0.13 0.19
0.63 0.54 0.18 0.04 0.28 0.28 0.34 0.85 0.25 0.28 0.16 0.20 0.31 0.12 0.09 0.13 0.15 0.27 0.09 0.00 0.00 0.01 0.04 0.08 0.00 0.00 0.00 0.01 0.01 0.01 0.03 0.04 0.04 0.03 0.06 0.05 0.01 0.09 0.23 0.04 0.17 0.11 0.02 0.03 0.00 0.13 0.35 0.22 0.17 0.13 0.27 0.16 0.17 0.09 0.15 0.17 0.11 0.22 0.27 0.31 0.33 0.15 0.17 0.07 0.09 0.04 0.12 0.06 0.29 0.40 0.47 0.27 0.23 0.18 0.19 0.24 0.16 0.22 0.17 0.30 0.40 0.31 0.24 0.27 0.29 0.22 0.13 0.07
1.03 0.25 0.29 0.05 0.15 0.18 0.36 0.44 0.47 0.39 0.37 0.26 0.24 0.09 0.13 0.07 0.15 0.04 0.02 0.12 0.02 0.07 0.02 0.02 0.01 0.02 0.02 0.01 0.03 0.04 0.07 0.11 0.01 0.05 0.09 0.30 0.24 0.33 0.30 0.21 0.07 0.07 0.18 0.14 0.04 0.02 0.12 0.25 0.30 0.30 0.29 0.52 0.41 0.21 0.16 0.25 0.35 0.13 0.11 0.10 0.14 0.18 0.29 0.25 0.08 0.04 0.14 0.18 0.13 0.17 0.06 0.09 0.33 0.21 0.19 0.25 0.18 0.31 0.34 0.19 0.22 0.28 0.18 0.14 0.28 0.14 0.16 0.11
0.73 0.65 0.14 0.07 0.19 0.02 0.09 0.17 0.32 0.44 0.47 0.31 0.13 0.13 0.13 0.11 0.17 0.04 0.01 0.06 0.09 0.08 0.03 0.17 0.06 0.02 0.02 0.01 0.01 0.13 0.11 0.06 0.10 0.03 0.06 0.05 0.14 0.40 0.85 0.48 0.84 0.26 0.03 0.12 0.07 0.14 0.07 0.34 0.10 0.27 0.35 0.35 0.42 0.22 0.25 0.29 0.30 0.27 0.12 0.10 0.12 0.13 0.12 0.15 0.22 0.20 0.16 0.21 0.15 0.19 0.01 0.09 0.24 0.21 0.55 0.69 0.35 1.05 0.93 0.58 0.49 0.52 0.43 0.28 0.36 0.29 0.14 0.14
0.43 0.21 0.10 0.17 0.13 0.16 0.03 0.05 0.14 0.18 0.59 0.43 0.48 0.23 0.10 0.04 0.13 0.03 0.04 0.01 0.05 0.05 0.04 0.07 0.03 0.12 0.23 0.37 0.01 0.07 0.03 0.03 0.03 0.01 0.02 0.01 0.07 0.20 0.03 0.38 0.12 0.78 0.88 0.68 0.40 1.18 0.10 0.71 0.14 0.30 0.35 0.33 0.28 0.23 0.19 0.37 0.31 0.25 0.21 0.23 0.13 0.11 0.17 0.12 0.18 0.21 0.21 0.50 0.45 0.33 0.07 0.08 0.26 0.25 0.17 0.63 0.41 0.19 0.43 0.36 0.19 0.24 0.69 0.62 0.53 0.42 0.54 0.51
0.31 0.06 0.06 0.10 0.10 0.02 0.04 0.00 0.02 0.05 0.23 0.24 0.33 0.39 0.27 0.16 0.07 0.04 0.05 0.01 0.07 0.01 0.04 0.01 0.01 0.13 0.07 0.14 0.11 0.03 0.02 0.01 0.02 0.02 0.01 0.01 0.01 0.03 0.00 0.06 0.05 0.06 0.09 0.16 0.40 0.56 0.41 0.23 0.31 0.53 0.21 0.62 0.42 0.19 0.23 0.24 0.37 0.62 0.34 0.17 0.21 0.27 0.08 0.12 0.15 0.09 0.17 0.25 0.67 0.67 0.37 0.22 0.18 0.20 0.13 0.25 0.16 0.13 0.10 0.28 0.66 0.48 0.38 0.49 0.57 0.28 0.11 0.08